Regional Weather Roundup
Issued by NWS Burlington, VT

Home | Current Version | Previous Version | Text Only | Print | Product List | Glossary On
Versions: 1 2 3 4 5 6 7 8 9 10 11 12 13 14 15 16 17 18 19 20 21 22 23 24 25 26 27 28 29 30 31 32 33 34 35 36 37 38 39 40 41 42 43 44 45 46 47 48 49 50
000
ASUS41 KBTV 211330
RWRBTV
VERMONT REGIONAL WEATHER ROUNDUP
NATIONAL WEATHER SERVICE BURLINGTON VT
800 AM EST SUN DEC 21 2014

NOTE: "FAIR" INDICATES FEW OR NO CLOUDS BELOW 12,000 FEET WITH NO
SIGNIFICANT WEATHER AND/OR OBSTRUCTIONS TO VISIBILITY.

* THESE REPORTS ARE NOT UNDER NWS QUALITY CONTROL AND/OR DO NOT
  REPORT WEATHER SUCH AS PRECIPITATION AND FOG.

VTZ001>019-211400-
_____VERMONT_____


CITY           SKY/WX    TMP DP  RH WIND       PRES   REMARKS
BURLINGTON     CLOUDY    18  14  84 CALM      30.36R
MONTPELIER     CLOUDY    15  13  91 CALM      30.32R FOG
MORRISVILLE    CLOUDY    11   8  88 CALM      30.34S
ST. JOHNSBURY*   N/A     14  10  84 MISG      30.32R
LYNDONVILLE*   CLOUDY    13   9  85 CALM      30.30S
MIDDLEBURY*    LGT SNOW  20  20 100 CALM      30.33R
RUTLAND*       CLOUDY    21  18  86 CALM      30.30S
SPRINGFIELD    LGT SNOW  25  23  92 CALM      30.33R FOG
HIGHGATE*      CLOUDY    15  13  91 CALM      30.37S FOG
NEWPORT*       FAIR       2  -2  85 CALM      30.32R FOG
BENNINGTON     CLOUDY    25  22  88 CALM      30.29R FOG
SUTTON*          N/A     16 N/A N/A MISG        N/A
GALLUP MILLS*    N/A     12 N/A N/A MISG        N/A
UNION VILLAGE*   N/A     23 N/A N/A MISG        N/A
MT. MANSFIELD*   N/A     18 N/A N/A CALM        N/A

_____LAKE CHAMPLAIN_____


CITY           SKY/WX    TMP DP  RH WIND       PRES   REMARKS
BURTON ISLAND*   N/A     21  19  93 N1          N/A
COLCHESTER RF*   N/A     23  23 100 NE5         N/A

$$

NYZ007-026>031-035-052-083-211400-
_____NORTHERN NEW YORK_____


CITY           SKY/WX    TMP DP  RH WIND       PRES   REMARKS
PLATTSBURGH    CLOUDY    18  16  92 CALM      30.36S FOG
SARANAC LAKE   CLOUDY    17  15  92 CALM      30.22R
MASSENA        CLOUDY    15  12  88 E7        30.37R FOG
OGDENSBURG*    PTSUNNY   18  16  93 NE5       30.35R FOG
POTSDAM*       CLOUDY    14  12  92 NE6       30.33R FOG
STARK FALLS*     N/A     23 N/A N/A S6          N/A
WATERTOWN      CLOUDY    26  20  77 N3        30.32R
FT DRUM        CLOUDY    24  18  77 CALM      30.29R
ALBANY         FLURRIES  27  20  75 CALM      30.34R
GLENS FALLS    CLOUDY    24  20  84 NE3       30.33S

$$
NHZ002-005-011-211400-
_____NEW HAMPSHIRE_____


CITY           SKY/WX    TMP DP  RH WIND       PRES   REMARKS
LEBANON        CLOUDY    24  19  81 NW3       30.32R
KEENE          CLOUDY    28  27  93 NW3       30.31R
MT WASHINGTON  FOG       12  12 100 SW12        N/A  VSB 1/8 WCI  -2
PLYMOUTH       CLOUDY    25  24  99 CALM      30.34R
WHITEFIELD     CLOUDY    17  14  88 E3        30.29R

$$

_____REGIONAL QUEBEC LOCATIONS_____


CITY           SKY/WX    TMP DP  RH WIND       PRES   REMARKS
MONTREAL       LGT SNOW  16  12  86 NE9       30.38  FOG
QUEBEC CITY    LGT SNOW  14   9  79 N6        30.39R
SHERBROOKE     HVY SNOW   7   5  92 CALM      30.33S VSB 1/8

_____REGIONAL ONTARIO LOCATIONS_____


CITY           SKY/WX    TMP DP  RH WIND       PRES   REMARKS
OTTAWA         LGT SNOW  10   9  92 E6        30.36R FOG

______KEY______
VSB  - VISIBILITY IN MILES
WCI  - WIND CHILL INDEX
HX   - HEAT INDEX
$$
NNNN



USA.gov is the U.S. government's official web portal to all federal, state and local government web resources and services.